Thunderstorms From: 26-05-2018 21:24 Until: 27-05-2018 15:00 warning for: Thunderstorms Level: Yellow info button

Although rather usual in this region, locally or potentially dangerous phenomena are expected. (such as local winds, summer thunderstorms, rising streams or high waves) Be aware and pay attention to the latest weather updates, especially if you carry out activities exposed to weather or close to a stream or shoreline. 


Meteo18 Weather Cam more information Meteo18 Weather Cam


warning for Thunderstorms more information blitzortung!


Rain radar more information rain snow radar


Visit our other weather sites:

Template documentation
and downloads

And another site



Weather Underground History page Text

Daily Summary for March 4, 2016 Units:  Metric    English   Both
« Previous Day
Next Day »
Daily Weekly Monthly Yearly Custom
  High: Low: Average:
Temperature: -17.8 °C -16.3 °C -14.6 °C
Dew Point: -17.8 °C -16.6 °C -14.9 °C
Humidity: Humidity % 89 % 95 %
Wind Speed: 0 km/h 0 km/h 3.1 km/h
Wind Gust: 0 km/h - -
Wind:- - SW
Pressure: 0 hPa 33602.7 hPa -
Precipitation: 586.74 mm    
Historical Graphs
 
 
Tabular Data for March 4, 2016
Time Temperature Dew Point Pressure Wind Wind Speed Wind Gust Humidity Rainfall Rate (Hourly)
-17.8 °C -17.8 °C 0 hPa Calm     Humidity % 0 mm
00:02 -16.3 °C -16.6 °C 34120.7 hPa Calm   2.6 km/h 96 % 0 mm
00:12 -16.2 °C -16.4 °C 34107.2 hPa SSW 2.6 km/h 5.1 km/h 97 % 0 mm
00:17 -16.1 °C -16.3 °C 34107.2 hPa Calm   5.1 km/h 97 % 0 mm
00:22 -16.1 °C -16.3 °C 34107.2 hPa Calm   5.1 km/h 97 % 0 mm
00:27 -16.1 °C -16.4 °C 34107.2 hPa Calm   5.1 km/h 96 % 0 mm
00:32 -16.1 °C -16.4 °C 34107.2 hPa Calm   2.6 km/h 96 % 0 mm
00:42 -16.1 °C -16.4 °C 34086.9 hPa Calm   2.6 km/h 96 % 0 mm
00:47 -16.1 °C -16.4 °C 34086.9 hPa Calm   2.6 km/h 96 % 0 mm
00:52 -16.1 °C -16.4 °C 34073.3 hPa Calm   2.6 km/h 96 % 0 mm
00:57 -15.9 °C -16.2 °C 34073.3 hPa SSW 2.6 km/h 2.6 km/h 97 % 0 mm
01:02 -15.8 °C -16 °C 34063.2 hPa SW 2.6 km/h 10.3 km/h 97 % 0 mm
01:12 -15.7 °C -16 °C 34063.2 hPa SW 5.1 km/h 10.3 km/h 96 % 0 mm
01:17 -15.7 °C -16.1 °C 34049.6 hPa WSW 2.6 km/h 15.6 km/h 95 % 0 mm
01:22 -15.7 °C -16.1 °C 34063.2 hPa Calm   15.6 km/h 95 % 0 mm
01:27 -15.7 °C -16.1 °C 34049.6 hPa WSW 2.6 km/h 15.6 km/h 95 % 0 mm
01:32 -15.7 °C -16.1 °C 34049.6 hPa Calm   5.1 km/h 95 % 0 mm
01:37 -15.7 °C -16.1 °C 34049.6 hPa Calm   5.1 km/h 95 % 0 mm
01:42 -15.7 °C -16.1 °C 34049.6 hPa Calm   5.1 km/h 95 % 0 mm
01:47 -15.6 °C -16 °C 34049.6 hPa Calm   10.3 km/h 95 % 0 mm
01:52 -15.6 °C -15.9 °C 34049.6 hPa SW 2.6 km/h 10.3 km/h 95 % 0 mm
01:57 -15.5 °C -15.9 °C 34039.5 hPa Calm   5.1 km/h 95 % 0 mm
02:02 -15.4 °C -15.8 °C 34039.5 hPa WSW 2.6 km/h 5.1 km/h 95 % 0 mm
02:07 -15.4 °C -15.8 °C 34039.5 hPa Calm   5.1 km/h 95 % 0 mm
02:12 -15.3 °C -15.7 °C 34029.3 hPa West 2.6 km/h 7.7 km/h 95 % 0 mm
02:17 -15.3 °C -15.7 °C 34029.3 hPa Calm   7.7 km/h 95 % 0 mm
02:22 -15.3 °C -15.7 °C 34029.3 hPa Calm   7.7 km/h 95 % 7.62 mm
02:27 -15.3 °C -15.7 °C 34015.8 hPa Calm   2.6 km/h 96 % 12.7 mm
02:32 -15.3 °C -15.7 °C 34015.8 hPa WSW 5.1 km/h 5.1 km/h 96 % 12.7 mm
02:37 -15.3 °C -15.7 °C 34005.6 hPa West 5.1 km/h 5.1 km/h 96 % 12.7 mm
02:42 -15.3 °C -15.7 °C 34005.6 hPa Calm   10.3 km/h 96 % 25.4 mm
02:47 -15.3 °C -15.7 °C 34005.6 hPa Calm   10.3 km/h 96 % 33.02 mm
02:52 -15.3 °C -15.7 °C 33992.1 hPa Calm   10.3 km/h 96 % 33.02 mm
02:57 -15.4 °C -15.7 °C 33992.1 hPa Calm   10.3 km/h 96 % 38.1 mm
03:02 -15.4 °C -15.7 °C 33981.9 hPa Calm   5.1 km/h 96 % 45.72 mm
03:07 -15.3 °C -15.7 °C 33981.9 hPa Calm   5.1 km/h 96 % 45.72 mm
03:12 -15.3 °C -15.6 °C 33981.9 hPa West 7.7 km/h 12.9 km/h 97 % 50.8 mm
03:17 -15.3 °C -15.6 °C 33971.7 hPa SW 2.6 km/h 18.2 km/h 97 % 50.8 mm
03:22 -15.3 °C -15.5 °C 33971.7 hPa West 2.6 km/h 18.2 km/h 97 % 50.8 mm
03:32 -15.2 °C -15.4 °C 33958.2 hPa WSW 2.6 km/h 10.3 km/h 97 % 38.1 mm
03:42 -15.2 °C -15.4 °C 33958.2 hPa Calm   20.8 km/h 97 % 33.02 mm
03:47 -15.2 °C -15.4 °C 33958.2 hPa SW 5.1 km/h 20.8 km/h 97 % 25.4 mm
03:52 -15.1 °C -15.3 °C 33948 hPa Calm   12.9 km/h 97 % 20.32 mm
03:57 -15.1 °C -15.3 °C 33948 hPa SSW 2.6 km/h 10.3 km/h 97 % 12.7 mm
04:02 -15.1 °C -15.3 °C 33937.9 hPa WSW 2.6 km/h 10.3 km/h 97 % 12.7 mm
04:07 -15.1 °C -15.3 °C 33937.9 hPa Calm   10.3 km/h 97 % 12.7 mm
04:12 -15.1 °C -15.3 °C 33937.9 hPa West 2.6 km/h 12.9 km/h 97 % 12.7 mm
04:17 -15.1 °C -15.3 °C 33924.3 hPa WSW 2.6 km/h 12.9 km/h 97 % 12.7 mm
04:22 -15 °C -15.2 °C 33924.3 hPa Calm   10.3 km/h 97 % 12.7 mm
04:32 -14.9 °C -15.2 °C 33900.6 hPa WSW 2.6 km/h 7.7 km/h 97 % 12.7 mm
04:37 -14.9 °C -15.2 °C 33900.6 hPa SW 2.6 km/h 12.9 km/h 97 % 12.7 mm
04:42 -14.9 °C -15.2 °C 33890.5 hPa WSW 5.1 km/h 12.9 km/h 97 % 20.32 mm
04:47 -14.9 °C -15.2 °C 33890.5 hPa Calm   15.6 km/h 97 % 20.32 mm
04:52 -14.9 °C -15.2 °C 33890.5 hPa SSW 2.6 km/h 15.6 km/h 97 % 20.32 mm
04:57 -14.9 °C -15.1 °C 33880.3 hPa WSW 5.1 km/h 15.6 km/h 97 % 25.4 mm
05:02 -14.9 °C -15.1 °C 33880.3 hPa West 7.7 km/h 28.5 km/h 97 % 25.4 mm
05:12 -14.9 °C -15.1 °C 33866.8 hPa WSW 2.6 km/h 28.5 km/h 97 % 20.32 mm
05:17 -14.9 °C -15.1 °C 33866.8 hPa WSW 7.7 km/h 28.5 km/h 97 % 12.7 mm
05:22 -14.9 °C -15.1 °C 33856.6 hPa Calm   10.3 km/h 97 % 12.7 mm
05:27 -14.8 °C -15.1 °C 33843.1 hPa Calm   7.7 km/h 97 % 12.7 mm
05:32 -14.8 °C -15.1 °C 33843.1 hPa West 7.7 km/h 7.7 km/h 97 % 12.7 mm
05:42 -14.8 °C -15.1 °C 33832.9 hPa Calm   15.6 km/h 97 % 7.62 mm
05:47 -14.8 °C -15.1 °C 33832.9 hPa Calm   15.6 km/h 97 % 12.7 mm
05:52 -14.8 °C -15.1 °C 33822.8 hPa WNW 2.6 km/h 15.6 km/h 97 % 12.7 mm
06:02 -14.8 °C -15.1 °C 33809.2 hPa WSW 2.6 km/h 12.9 km/h 97 % 7.62 mm
06:07 -14.8 °C -15 °C 33809.2 hPa Calm   12.9 km/h 97 % 7.62 mm
06:12 -14.8 °C -15 °C 33799.1 hPa West 2.6 km/h 12.9 km/h 97 % 12.7 mm
06:17 -14.8 °C -15 °C 33799.1 hPa WSW 2.6 km/h 10.3 km/h 97 % 38.1 mm
06:22 -14.8 °C -15 °C 33788.9 hPa West 10.3 km/h 10.3 km/h 97 % 38.1 mm
06:27 -14.7 °C -14.9 °C 33788.9 hPa West 2.6 km/h 12.9 km/h 97 % 38.1 mm
06:32 -14.7 °C -14.9 °C 33788.9 hPa West 2.6 km/h 18.2 km/h 97 % 38.1 mm
06:37 -14.7 °C -14.9 °C 33775.4 hPa West 2.6 km/h 18.2 km/h 97 % 45.72 mm
06:42 -14.7 °C -14.9 °C 33775.4 hPa Calm   18.2 km/h 97 % 45.72 mm
06:52 -14.7 °C -14.9 °C 33765.2 hPa WSW 2.6 km/h 12.9 km/h 97 % 50.8 mm
06:57 -14.7 °C -14.9 °C 33765.2 hPa Calm   12.9 km/h 97 % 58.42 mm
07:02 -14.7 °C -14.9 °C 33765.2 hPa WSW 5.1 km/h 15.6 km/h 97 % 58.42 mm
07:07 -14.6 °C -14.8 °C 33751.6 hPa West 5.1 km/h 15.6 km/h 97 % 58.42 mm
07:12 -14.6 °C -14.8 °C 33751.6 hPa Calm   15.6 km/h 97 % 58.42 mm
07:17 -14.6 °C -14.8 °C 33751.6 hPa WSW 5.1 km/h 18.2 km/h 97 % 45.72 mm
07:22 -14.5 °C -14.7 °C 33741.5 hPa SW 2.6 km/h 20.8 km/h 98 % 45.72 mm
07:32 -14.3 °C -14.5 °C 33731.3 hPa WNW 2.6 km/h 20.8 km/h 98 % 50.8 mm
07:37 -14.3 °C -14.5 °C 33717.8 hPa WSW 2.6 km/h 20.8 km/h 98 % 45.72 mm
07:47 -14.2 °C -14.4 °C 33717.8 hPa South 5.1 km/h 20.8 km/h 98 % 38.1 mm
07:52 -14.2 °C -14.3 °C 33707.6 hPa WSW 10.3 km/h 15.6 km/h 98 % 33.02 mm
08:02 -14.1 °C -14.3 °C 33707.6 hPa Calm   28.5 km/h 97 % 25.4 mm
08:07 -14.1 °C -14.3 °C 33707.6 hPa WSW 7.7 km/h 28.5 km/h 97 % 20.32 mm
08:12 -14.1 °C -14.3 °C 33707.6 hPa SW 7.7 km/h 25.9 km/h 97 % 20.32 mm
08:17 -14 °C -14.2 °C 33707.6 hPa WSW 7.7 km/h 25.9 km/h 97 % 12.7 mm
08:22 -14 °C -14.2 °C 33707.6 hPa WSW 2.6 km/h 12.9 km/h 97 % 12.7 mm
08:27 -13.9 °C -14.2 °C 33694.1 hPa SW 2.6 km/h 15.6 km/h 97 % 7.62 mm
08:32 -13.9 °C -14.2 °C 33694.1 hPa SW 7.7 km/h 15.6 km/h 97 % 7.62 mm
08:37 -13.9 °C -14.1 °C 33694.1 hPa SSW 12.9 km/h 20.8 km/h 97 % 7.62 mm
08:42 -13.8 °C -14.2 °C 33694.1 hPa WSW 7.7 km/h 20.8 km/h 96 % 12.7 mm
08:47 -13.8 °C -14.1 °C 33694.1 hPa WSW 7.7 km/h 20.8 km/h 97 % 20.32 mm
08:52 -13.8 °C -14.1 °C 33694.1 hPa SW 15.6 km/h 20.8 km/h 97 % 38.1 mm
08:57 -13.8 °C -14.1 °C 33694.1 hPa WSW 12.9 km/h 20.8 km/h 97 % 58.42 mm
09:02 -13.8 °C -14.1 °C 33694.1 hPa SW 10.3 km/h 20.8 km/h 97 % 58.42 mm
09:07 -13.8 °C -14.1 °C 33694.1 hPa SW 7.7 km/h 20.8 km/h 97 % 76.2 mm
09:12 -13.8 °C -14.1 °C 33694.1 hPa SW 10.3 km/h 18.2 km/h 97 % 83.82 mm
09:17 -13.8 °C -14.1 °C 33694.1 hPa West 5.1 km/h 15.6 km/h 97 % 83.82 mm
09:22 -13.8 °C -14.1 °C 33694.1 hPa SW 10.3 km/h 18.2 km/h 97 % 104.14 mm
09:27 -13.8 °C -14.1 °C 33694.1 hPa West 5.1 km/h 18.2 km/h 97 % 116.84 mm
09:37 -13.7 °C -13.9 °C 33673.8 hPa South 5.1 km/h 15.6 km/h 97 % 134.62 mm
09:42 -13.7 °C -13.9 °C 33683.9 hPa SSE 7.7 km/h 12.9 km/h 97 % 129.54 mm
09:47 -13.7 °C -13.9 °C 33673.8 hPa SW 5.1 km/h 10.3 km/h 97 % 116.84 mm
09:52 -13.6 °C -13.8 °C 33683.9 hPa WSW 7.7 km/h 10.3 km/h 97 % 96.52 mm
09:57 -13.6 °C -13.8 °C 33683.9 hPa SW 5.1 km/h 12.9 km/h 97 % 91.44 mm
10:02 -13.6 °C -13.8 °C 33673.8 hPa SW 7.7 km/h 12.9 km/h 97 % 83.82 mm
10:07 -13.5 °C -13.7 °C 33673.8 hPa SW 10.3 km/h 15.6 km/h 97 % 63.5 mm
10:12 -13.4 °C -13.7 °C 33673.8 hPa SW 10.3 km/h 28.5 km/h 97 % 58.42 mm
10:17 -13.4 °C -13.6 °C 33673.8 hPa SW 5.1 km/h 28.5 km/h 97 % 50.8 mm
10:22 -13.3 °C -13.5 °C 33660.2 hPa SW 5.1 km/h 28.5 km/h 97 % 38.1 mm
10:27 -13.2 °C -13.4 °C 33660.2 hPa SW 10.3 km/h 25.9 km/h 97 % 25.4 mm
10:32 -13.2 °C -13.5 °C 33660.2 hPa SW 5.1 km/h 25.9 km/h 96 % 7.62 mm
10:42 -13 °C -13.3 °C 33660.2 hPa SSW 10.3 km/h 20.8 km/h 96 % 7.62 mm
10:47 -13 °C -13.3 °C 33660.2 hPa NNW 2.6 km/h 20.8 km/h 96 % 7.62 mm
10:52 -12.9 °C -13.3 °C 33660.2 hPa SW 10.3 km/h 18.2 km/h 96 % 7.62 mm
10:57 -12.9 °C -13.2 °C 33660.2 hPa West 15.6 km/h 23.3 km/h 96 % 0 mm
11:02 -12.8 °C -13.3 °C 33673.8 hPa SW 7.7 km/h 23.3 km/h 95 % 0 mm
11:12 -12.9 °C -13.4 °C 33673.8 hPa SW 5.1 km/h 23.3 km/h 94 % 0 mm
11:17 -12.9 °C -13.5 °C 33673.8 hPa SW 7.7 km/h 25.9 km/h 93 % 0 mm
11:32 -12.8 °C -13.6 °C 33673.8 hPa ESE 5.1 km/h 23.3 km/h 91 % 0 mm
11:37 -12.8 °C -13.6 °C 33673.8 hPa West 23.3 km/h 23.3 km/h 91 % 0 mm
11:42 -12.8 °C -13.7 °C 33660.2 hPa WSW 18.2 km/h 23.3 km/h 90 % 0 mm
11:47 -12.8 °C -13.7 °C 33660.2 hPa SW 5.1 km/h 23.3 km/h 90 % 0 mm
11:57 -12.8 °C -13.7 °C 33660.2 hPa South 12.9 km/h 25.9 km/h 90 % 0 mm
12:02 -12.8 °C -13.8 °C 33660.2 hPa SW 7.7 km/h 23.3 km/h 89 % 0 mm
12:07 -12.9 °C -13.8 °C 33660.2 hPa South 10.3 km/h 23.3 km/h 89 % 0 mm
12:12 -12.9 °C -13.8 °C 33660.2 hPa SW 2.6 km/h 23.3 km/h 90 % 0 mm
12:17 -12.9 °C -13.8 °C 33660.2 hPa SW 7.7 km/h 23.3 km/h 90 % 0 mm
12:22 -12.9 °C -13.8 °C 33660.2 hPa SW 7.7 km/h 23.3 km/h 90 % 0 mm
12:27 -12.9 °C -13.8 °C 33660.2 hPa SW 10.3 km/h 23.3 km/h 89 % 0 mm
12:32 -12.9 °C -13.9 °C 33660.2 hPa SW 12.9 km/h 25.9 km/h 89 % 0 mm
12:42 -13.3 °C -13.9 °C 33660.2 hPa WSW 5.1 km/h 25.9 km/h 92 % 12.7 mm
12:47 -13.4 °C -14 °C 33660.2 hPa WSW 7.7 km/h 25.9 km/h 93 % 20.32 mm
12:52 -13.5 °C -14.1 °C 33660.2 hPa WSW 7.7 km/h 25.9 km/h 93 % 33.02 mm
12:57 -13.5 °C -14 °C 33660.2 hPa Calm   20.8 km/h 94 % 38.1 mm
13:02 -13.6 °C -14.1 °C 33660.2 hPa Calm   15.6 km/h 94 % 38.1 mm
13:07 -13.8 °C -14.4 °C 33660.2 hPa ESE 2.6 km/h 18.2 km/h 92 % 50.8 mm
13:12 -13.9 °C -14.6 °C 33660.2 hPa ENE 2.6 km/h 18.2 km/h 92 % 58.42 mm
13:17 -14.1 °C -14.7 °C 33660.2 hPa ENE 10.3 km/h 15.6 km/h 93 % 58.42 mm
13:27 -14.2 °C -14.8 °C 33660.2 hPa WSW 7.7 km/h 18.2 km/h 93 % 83.82 mm
13:32 -14.2 °C -14.8 °C 33660.2 hPa NE 2.6 km/h 18.2 km/h 93 % 83.82 mm
13:37 -14.3 °C -14.8 °C 33660.2 hPa Calm   12.9 km/h 94 % 96.52 mm
13:42 -14.3 °C -14.8 °C 33660.2 hPa SW 7.7 km/h 12.9 km/h 94 % 91.44 mm
13:47 -14.2 °C -14.7 °C 33650.1 hPa Calm   12.9 km/h 94 % 76.2 mm
13:52 -14.2 °C -14.7 °C 33650.1 hPa Calm   10.3 km/h 94 % 76.2 mm
13:57 -14.1 °C -14.6 °C 33650.1 hPa Calm   10.3 km/h 94 % 71.12 mm
14:02 -14.2 °C -14.8 °C 33650.1 hPa Calm   10.3 km/h 93 % 63.5 mm
14:07 -14.2 °C -14.8 °C 33650.1 hPa SW 5.1 km/h 10.3 km/h 93 % 58.42 mm
14:12 -14.3 °C -14.9 °C 33639.9 hPa ESE 2.6 km/h 10.3 km/h 92 % 50.8 mm
14:17 -14.3 °C -14.8 °C 33639.9 hPa Calm   15.6 km/h 93 % 50.8 mm
14:22 -14.3 °C -14.9 °C 33639.9 hPa Calm   15.6 km/h 93 % 45.72 mm
14:27 -14.3 °C -14.8 °C 33639.9 hPa Calm   12.9 km/h 93 % 38.1 mm
14:32 -14.3 °C -14.8 °C 33639.9 hPa WSW 2.6 km/h 7.7 km/h 93 % 25.4 mm
14:37 -14.3 °C -14.8 °C 33639.9 hPa SW 2.6 km/h 7.7 km/h 93 % 20.32 mm
14:42 -14.3 °C -14.8 °C 33626.4 hPa Calm   7.7 km/h 93 % 25.4 mm
14:47 -14.3 °C -14.8 °C 33639.9 hPa Calm   5.1 km/h 93 % 20.32 mm
14:52 -14.3 °C -14.8 °C 33639.9 hPa Calm   5.1 km/h 94 % 20.32 mm
14:57 -14.3 °C -14.8 °C 33626.4 hPa SSW 2.6 km/h 5.1 km/h 93 % 20.32 mm
15:02 -14.3 °C -14.8 °C 33639.9 hPa Calm   7.7 km/h 94 % 20.32 mm
15:07 -14.3 °C -14.8 °C 33639.9 hPa SW 2.6 km/h 7.7 km/h 94 % 25.4 mm
15:12 -14.3 °C -14.8 °C 33639.9 hPa WSW 2.6 km/h 7.7 km/h 94 % 20.32 mm
15:17 -14.3 °C -14.9 °C 33626.4 hPa Calm   7.7 km/h 93 % 25.4 mm
15:22 -14.3 °C -14.9 °C 33626.4 hPa WSW 2.6 km/h 7.7 km/h 93 % 20.32 mm
15:27 -14.4 °C -14.9 °C 33626.4 hPa SW 2.6 km/h 10.3 km/h 93 % 20.32 mm
15:32 -14.4 °C -14.9 °C 33626.4 hPa SW 2.6 km/h 10.3 km/h 93 % 25.4 mm
15:37 -14.4 °C -14.9 °C 33626.4 hPa Calm   10.3 km/h 94 % 33.02 mm
15:42 -14.4 °C -14.9 °C 33626.4 hPa Calm   10.3 km/h 94 % 25.4 mm
15:47 -14.4 °C -14.9 °C 33626.4 hPa SW 5.1 km/h 7.7 km/h 94 % 25.4 mm
15:52 -14.4 °C -14.9 °C 33626.4 hPa Calm   10.3 km/h 94 % 33.02 mm
15:57 -14.5 °C -15 °C 33626.4 hPa Calm   10.3 km/h 94 % 25.4 mm
16:02 -14.5 °C -15 °C 33626.4 hPa Calm   10.3 km/h 94 % 25.4 mm
16:07 -14.5 °C -14.9 °C 33626.4 hPa Calm   7.7 km/h 95 % 33.02 mm
16:12 -14.5 °C -14.9 °C 33626.4 hPa Calm   7.7 km/h 95 % 33.02 mm
16:17 -14.6 °C -14.9 °C 33626.4 hPa Calm   10.3 km/h 95 % 33.02 mm
16:22 -14.5 °C -14.9 °C 33626.4 hPa SW 2.6 km/h 10.3 km/h 95 % 38.1 mm
16:27 -14.5 °C -14.9 °C 33626.4 hPa Calm   10.3 km/h 95 % 33.02 mm
16:32 -14.5 °C -14.8 °C 33626.4 hPa SW 5.1 km/h 10.3 km/h 96 % 38.1 mm
16:37 -14.6 °C -14.9 °C 33616.2 hPa SW 2.6 km/h 10.3 km/h 96 % 45.72 mm
16:42 -14.5 °C -14.8 °C 33616.2 hPa SW 5.1 km/h 10.3 km/h 96 % 45.72 mm
16:47 -14.5 °C -14.8 °C 33602.7 hPa Calm   10.3 km/h 96 % 45.72 mm
16:52 -14.4 °C -14.8 °C 33602.7 hPa Calm   7.7 km/h 96 % 50.8 mm
16:57 -14.3 °C -14.7 °C 33602.7 hPa Calm   7.7 km/h 96 % 45.72 mm
17:02 -14.3 °C -14.6 °C 33602.7 hPa Calm   5.1 km/h 96 % 38.1 mm
17:07 -14.3 °C -14.6 °C 33602.7 hPa Calm   5.1 km/h 96 % 38.1 mm
17:12 -14.3 °C -14.7 °C 33602.7 hPa Calm   7.7 km/h 95 % 38.1 mm
17:17 -14.3 °C -14.7 °C 33602.7 hPa Calm   7.7 km/h 95 % 33.02 mm
17:22 -14.3 °C -14.7 °C 33616.2 hPa SW 5.1 km/h 7.7 km/h 95 % 25.4 mm
17:27 -14.3 °C -14.7 °C 33602.7 hPa West 2.6 km/h 7.7 km/h 95 % 25.4 mm
17:32 -14.3 °C -14.7 °C 33602.7 hPa WSW 10.3 km/h 10.3 km/h 95 % 12.7 mm
17:37 -14.3 °C -14.7 °C 33602.7 hPa Calm   10.3 km/h 95 % 12.7 mm
17:42 -14.3 °C -14.7 °C 33602.7 hPa Calm   10.3 km/h 95 % 7.62 mm
17:47 -14.3 °C -14.7 °C 33602.7 hPa Calm   10.3 km/h 95 % 7.62 mm
17:52 -14.3 °C -14.7 °C 33602.7 hPa Calm   10.3 km/h 95 % 0 mm
17:57 -14.4 °C -14.8 °C 33602.7 hPa WSW 2.6 km/h 10.3 km/h 95 % 0 mm
18:02 -14.4 °C -14.8 °C 33602.7 hPa Calm   10.3 km/h 95 % 0 mm
18:07 -14.4 °C -14.8 °C 33616.2 hPa West 2.6 km/h 10.3 km/h 95 % 0 mm
18:12 -14.4 °C -14.8 °C 33616.2 hPa Calm   10.3 km/h 95 % 0 mm
18:17 -14.6 °C -15.1 °C 33602.7 hPa Calm   7.7 km/h 94 % 0 mm
18:22 -14.6 °C -15.1 °C 33602.7 hPa Calm   7.7 km/h 94 % 0 mm
18:32 -14.6 °C -15.1 °C 33616.2 hPa Calm   2.6 km/h 94 % 0 mm
18:42 -14.7 °C -15.1 °C 33616.2 hPa Calm   5.1 km/h 95 % 0 mm
18:47 -14.7 °C -15.1 °C 33602.7 hPa Calm   2.6 km/h 95 % 0 mm
18:52 -14.7 °C -15.1 °C 33602.7 hPa Calm   2.6 km/h 95 % 0 mm
18:57 -14.7 °C -15.1 °C 33602.7 hPa Calm   2.6 km/h 95 % 0 mm
19:07 -14.7 °C -15.1 °C 33602.7 hPa Calm     95 % 0 mm
19:12 -14.8 °C -15.2 °C 33602.7 hPa Calm   2.6 km/h 95 % 0 mm
19:17 -14.8 °C -15.2 °C 33602.7 hPa Calm   2.6 km/h 95 % 0 mm
19:22 -14.8 °C -15.2 °C 33602.7 hPa Calm   2.6 km/h 95 % 0 mm
19:27 -14.9 °C -15.3 °C 33616.2 hPa Calm     95 % 0 mm
19:32 -14.9 °C -15.3 °C 33616.2 hPa Calm     95 % 0 mm
19:37 -14.9 °C -15.3 °C 33626.4 hPa Calm     96 % 0 mm
19:42 -14.9 °C -15.3 °C 33616.2 hPa Calm     96 % 0 mm
19:47 -14.9 °C -15.3 °C 33626.4 hPa Calm     96 % 0 mm
19:52 -14.9 °C -15.3 °C 33626.4 hPa Calm     96 % 7.62 mm
19:57 -14.9 °C -15.3 °C 33626.4 hPa Calm     96 % 7.62 mm
20:02 -14.9 °C -15.3 °C 33626.4 hPa Calm     96 % 7.62 mm
20:07 -14.9 °C -15.3 °C 33616.2 hPa Calm     96 % 7.62 mm
20:12 -14.9 °C -15.3 °C 33626.4 hPa Calm     96 % 7.62 mm
20:17 -14.9 °C -15.3 °C 33626.4 hPa Calm     96 % 7.62 mm
20:22 -14.9 °C -15.3 °C 33616.2 hPa Calm     96 % 7.62 mm
20:32 -15 °C -15.3 °C 33616.2 hPa Calm     96 % 7.62 mm
20:37 -15.1 °C -15.4 °C 33602.7 hPa Calm     96 % 7.62 mm
20:42 -15.1 °C -15.4 °C 33616.2 hPa Calm     96 % 7.62 mm
20:47 -15 °C -15.2 °C 33616.2 hPa Calm     97 % 7.62 mm
20:52 -15.1 °C -15.4 °C 33616.2 hPa Calm     96 % 0 mm
20:57 -15.1 °C -15.3 °C 33602.7 hPa Calm     97 % 7.62 mm
21:07 -15 °C -15.2 °C 33616.2 hPa Calm     97 % 7.62 mm
21:12 -15.1 °C -15.3 °C 33616.2 hPa Calm   2.6 km/h 97 % 7.62 mm
21:22 -14.9 °C -15.2 °C 33626.4 hPa Calm   2.6 km/h 97 % 7.62 mm
21:27 -14.9 °C -15.2 °C 33626.4 hPa Calm   2.6 km/h 97 % 7.62 mm
21:32 -14.9 °C -15.1 °C 33626.4 hPa SW 2.6 km/h 7.7 km/h 97 % 7.62 mm
21:37 -14.9 °C -15.1 °C 33626.4 hPa SW 2.6 km/h 7.7 km/h 97 % 7.62 mm
21:42 -14.8 °C -15.1 °C 33639.9 hPa Calm   10.3 km/h 97 % 7.62 mm
21:47 -14.8 °C -15.1 °C 33639.9 hPa Calm   10.3 km/h 97 % 7.62 mm
21:57 -14.8 °C -15.1 °C 33626.4 hPa SW 2.6 km/h 10.3 km/h 97 % 0 mm
22:02 -14.8 °C -15.1 °C 33626.4 hPa WSW 5.1 km/h 12.9 km/h 97 % 0 mm
22:07 -14.8 °C -15.1 °C 33626.4 hPa SSE 2.6 km/h 12.9 km/h 97 % 7.62 mm
22:12 -14.8 °C -15.1 °C 33626.4 hPa Calm   12.9 km/h 97 % 7.62 mm
22:17 -14.8 °C -15.1 °C 33626.4 hPa Calm   7.7 km/h 97 % 7.62 mm
22:22 -14.8 °C -15.1 °C 33626.4 hPa SW 2.6 km/h 7.7 km/h 97 % 7.62 mm
22:32 -14.8 °C -15.1 °C 33626.4 hPa WSW 2.6 km/h 7.7 km/h 97 % 12.7 mm
22:37 -14.8 °C -15.1 °C 33626.4 hPa SW 2.6 km/h 10.3 km/h 97 % 12.7 mm
22:42 -14.9 °C -15.1 °C 33639.9 hPa SSW 7.7 km/h 10.3 km/h 97 % 20.32 mm
22:52 -15.1 °C -15.5 °C 33626.4 hPa South 2.6 km/h 15.6 km/h 95 % 33.02 mm
22:57 -15.2 °C -15.7 °C 33626.4 hPa SE 2.6 km/h 15.6 km/h 94 % 38.1 mm
23:02 -15.2 °C -15.7 °C 33639.9 hPa SW 5.1 km/h 15.6 km/h 94 % 38.1 mm
23:07 -15.2 °C -15.6 °C 33639.9 hPa WSW 2.6 km/h 15.6 km/h 95 % 38.1 mm
23:12 -15.2 °C -15.6 °C 33639.9 hPa SW 2.6 km/h 10.3 km/h 95 % 38.1 mm
23:17 -15.2 °C -15.6 °C 33639.9 hPa SW 7.7 km/h 12.9 km/h 95 % 38.1 mm
23:22 -15.1 °C -15.5 °C 33639.9 hPa Calm   12.9 km/h 95 % 38.1 mm
23:27 -15.1 °C -15.4 °C 33639.9 hPa SW 2.6 km/h 15.6 km/h 95 % 38.1 mm
23:32 -15.1 °C -15.4 °C 33639.9 hPa WSW 5.1 km/h 15.6 km/h 95 % 38.1 mm
23:37 -15.1 °C -15.6 °C 33639.9 hPa WSW 15.6 km/h 15.6 km/h 94 % 38.1 mm
23:42 -15.1 °C -15.7 °C 33639.9 hPa WSW 7.7 km/h 31.1 km/h 93 % 33.02 mm
23:47 -15.2 °C -15.7 °C 33639.9 hPa WNW 2.6 km/h 31.1 km/h 93 % 25.4 mm
23:52 -15.2 °C -15.7 °C 33639.9 hPa SW 5.1 km/h 31.1 km/h 94 % 12.7 mm
23:57 -15.2 °C -15.7 °C 33639.9 hPa SW 2.6 km/h 23.3 km/h 94 % 12.7 mm
Meteo18
Compliments of Weather Underground - 4 mb

Script developed by  Jim McMurry - jmcmurry@mwt.net Adapted for the template by  Wim van der Kuil - Leuven-Template.eu

You find our weather info also at:

European Weather Network

Weather Underground

Equipment we use:

Weather-station
Davis Vue

Weather-program
Meteobridge

Weather-server
Raspberry PI 2 B+

Provider
1 and 1

Davis Vue

Meteobridge

Raspberry PI 2 B+

1 and 1